Regional Weather Roundup
Issued by NWS

Home | Current Version | Previous Version | Graphics & Text | Print | Product List | Glossary On
Versions: 1 2 3 4 5 6 7 8 9 10 11 12 13 14 15 16 17 18 19 20 21 22 23 24 25 26 27 28 29 30 31 32 33 34 35 36 37 38 39 40 41 42 43 44 45 46 47 48 49 50
000
ASUS43 KTOP 190559
RWRKS

WEATHER ROUNDUP FOR KANSAS
NATIONAL WEATHER SERVICE GOODLAND KS
100 AM CDT SUN APR 19 2015

NOTE:  "FAIR" INDICATES FEW OR NO CLOUDS BELOW 12,000 FEET WITH NO
SIGNIFICANT WEATHER AND/OR OBSTRUCTIONS TO VISIBILITY.

KSZ001>006-013>018-027>032-041>047-190700-
NORTHWEST KANSAS

CITY           SKY/WX    TMP DP  RH WIND       PRES   REMARKS
GOODLAND       CLOUDY    47  44  90 N13       29.79S
6HR MIN TEMP:  45; 6HR MAX TEMP:  56; 6HR PCP: TRACE;

HAYS           FAIR      52  43  71 N8        29.78F
HILL CITY      MOCLDY    51  47  86 E9        29.80S
6HR MIN TEMP:  50; 6HR MAX TEMP:  60; 6HR PCP:  0.01;

RUSSELL        FAIR      50  48  93 NE5       29.76R
6HR MIN TEMP:  50; 6HR MAX TEMP:  56; 6HR PCP: TRACE;

$$

KSZ061>065-074>080-084>089-190700-
SOUTHWEST KANSAS

CITY           SKY/WX    TMP DP  RH WIND       PRES   REMARKS
DODGE CITY     FAIR      49  40  71 S5        29.80R
6HR MIN TEMP:  49; 6HR MAX TEMP:  68;

ELKHART          N/A    N/A N/A N/A MISG        N/A
GARDEN CITY    FAIR      41  36  82 W8        29.80R
6HR MIN TEMP:  40; 6HR MAX TEMP:  57; 6HR PCP: TRACE;

GREAT BEND     FAIR      52  46  82 CALM      29.79R
LIBERAL        FAIR      45  34  65 N8        29.83R
$$

KSZ066>073-081>083-090>101-190700-
SOUTHEAST KANSAS

CITY           SKY/WX    TMP DP  RH WIND       PRES   REMARKS
CHANUTE        CLOUDY    58  53  84 NW10      29.81R
6HR MIN TEMP:  58; 6HR MAX TEMP:  67;

COFFEYVILLE    LGT RAIN  61  59  93 S3        29.79R FOG
6HR MIN TEMP:  60; 6HR MAX TEMP:  70; 6HR PCP:  0.02;

HUTCHINSON     CLOUDY    55  51  86 SE10      29.75F
6HR MIN TEMP:  53; 6HR MAX TEMP:  57; 6HR PCP:  0.17;

MEDICINE LODGE   N/A     55  51  86 E6        29.77F
NEWTON         CLOUDY    54  48  82 S12       29.83F
PARSONS        CLOUDY    61  60  97 NW9       29.81R
6HR MIN TEMP:  60; 6HR MAX TEMP:  70;

WICHITA INTL   LGT RAIN  55  53  93 E17       29.74F
6HR MIN TEMP:  54; 6HR MAX TEMP:  70; 6HR PCP:  0.74;

WICHITA JABRA  LGT RAIN  54  54 100 SE9       29.83F
6HR MIN TEMP:  53; 6HR MAX TEMP:  68; 6HR PCP:  0.85;

WICHITA MCCONL LGT RAIN  55  54  94 E12       29.83F
WINFIELD       CLOUDY    52  51  97 E7        29.81F
6HR MIN TEMP:  52; 6HR MAX TEMP:  71; 6HR PCP:  0.88;

$$

KSZ007>012-019>026-033>040-048>060-102>105-190700-
NORTHEAST KANSAS

CITY           SKY/WX    TMP DP  RH WIND       PRES   REMARKS
CONCORDIA      CLOUDY    54  51  90 S10       29.80R
6HR MIN TEMP:  53; 6HR MAX TEMP:  59; 6HR PCP:  0.28;

EMPORIA        RAIN      54  51  90 W6        29.83R FOG
6HR MIN TEMP:  53; 6HR MAX TEMP:  66; 6HR PCP:  0.31;

LAWRENCE       CLOUDY    57  52  83 NW9       29.81F
6HR MIN TEMP:  55; 6HR MAX TEMP:  63;

MANHATTAN      LGT RAIN  55  54  96 VRB7      29.78F
6HR MIN TEMP:  54; 6HR MAX TEMP:  69; 6HR PCP:  0.44;

OLATHE IND     CLOUDY    59  58  96 W8        29.80F
6HR MIN TEMP:  58; 6HR MAX TEMP:  63; 6HR PCP:  0.01;

OLATHE EXE     CLOUDY    59  58  96 E3        29.79F
6HR MIN TEMP:  58; 6HR MAX TEMP:  63;

SALINA         CLOUDY    56  50  80 E9        29.78F
6HR MIN TEMP:  54; 6HR MAX TEMP:  58; 6HR PCP:  0.19;

TOPEKA BILLARD CLOUDY    57  52  83 CALM      29.81F
6HR MIN TEMP:  57; 6HR MAX TEMP:  66;

TOPEKA FORBES  CLOUDY    58  52  80 NW6       29.80F
6HR MIN TEMP:  58; 6HR MAX TEMP:  66;

$$



USA.gov is the U.S. government's official web portal to all federal, state and local government web resources and services.